星链-31733 (STARLINK-31733 )

导读 | 豆包AI

STARLINK-31733是美国SpaceX星链星座的一员,于2024年4月13日发射升空,属于Starlink Group 6系列组网卫星,旨在为全球提供低延迟、高速率的宽带互联网服务。该卫星运行在近地轨道,依托星链大规模星座部署,进一步拓展了星链网络的覆盖范围与服务能力。

Basic Information
目录编号:
59486
目录名称:
STARLINK-31733
国际标识:
2024-071C
轨道中心:
EARTH
卫星名称:
星链-31733
卫星全名:
星链-31733 (STARLINK-31733 )
卫星状态:
在轨 (已飞行747 天)
发射日期:
2024-04-13 UTC
国别 :
美国 (US)
星等 :
--
Orbit Information
数据来源 国际轨道数据 AOE轨道数据
星历时间 2026-04-29T12:43:23+0800
20小时前
查看轨道信息
2026-04-26T17:00:00+0800
3天前
查看轨道信息
半长轴 6861.217km 6861.193km
偏心率 0.0000907 0.0000995
轨道倾角 43.003° 43.001°
近地点辐角 274.031° 245.535°
升交点赤经 54.194° 70.133°
平近点角 86.043° 58.551°
近地点 482.457km 482.373km
远地点 483.703km 483.739km
周期 94.267分钟 94.267分钟
每日圈数 15.275698 15.27578
Detailed Information
固有亮度:
5
最大亮度:
1.5
卫星平台:
Starlink v2.0 mini
覆盖范围:
全球
运营商:
太空探索技术公司
运营商所在国:
美国
制造商(研发单位):
太空探索技术公司
制造商所在国:
美国
使用方式:
暂无
Satellite Introduction
星链(Starlink)计划是由太空探索技术公司(SpaceX)提出的一个巨型低轨卫星互联网星座项目,计划在2019年至2024年间在太空搭建由约1.2万颗卫星组成的“星链”网络,其中1584颗将部署在地球上空550千米处的近地轨道,并从2020年开始工作。该卫星仍在工作。
2D Orbit Map
3D Orbit Map
Orbit Altitude Analysis Chart
Orbit Inclination Analysis Chart
Orbit Comprehensive Analysis Chart
View Comprehensive Chart